Year,Month,Day,Hour,Minute,Value (Times are PST for temperature in C)
2016,02,23,00,00,2.70
2016,02,23,00,01,2.70
2016,02,23,00,02,2.70
2016,02,23,00,03,2.70
2016,02,23,00,04,2.70
2016,02,23,00,05,2.70
2016,02,23,00,06,2.70
2016,02,23,00,07,2.70
2016,02,23,00,08,2.70
2016,02,23,00,09,2.70
2016,02,23,00,10,2.70
2016,02,23,00,11,2.70
2016,02,23,00,12,2.70
2016,02,23,00,13,2.70
2016,02,23,00,14,2.70
2016,02,23,00,15,2.70
2016,02,23,00,16,2.70
2016,02,23,00,17,2.70
2016,02,23,00,18,2.70
2016,02,23,00,19,2.70
2016,02,23,00,20,2.70
2016,02,23,00,21,2.70
2016,02,23,00,22,2.70
2016,02,23,00,23,2.70
2016,02,23,00,24,2.70
2016,02,23,00,25,2.70
2016,02,23,00,26,2.70
2016,02,23,00,27,2.70
2016,02,23,00,28,2.70
2016,02,23,00,29,2.70
2016,02,23,00,30,2.80
2016,02,23,00,31,2.80
2016,02,23,00,32,2.80
2016,02,23,00,33,2.80
2016,02,23,00,34,2.80
2016,02,23,00,35,2.80
2016,02,23,00,36,2.80
2016,02,23,00,37,2.80
2016,02,23,00,38,2.80
2016,02,23,00,39,2.80
2016,02,23,00,40,2.80
2016,02,23,00,41,2.80
2016,02,23,00,42,2.80
2016,02,23,00,43,2.80
2016,02,23,00,44,2.80
2016,02,23,00,45,2.80
2016,02,23,00,46,2.80
2016,02,23,01,54,2.80
2016,02,23,01,55,2.80
2016,02,23,01,56,2.80
2016,02,23,01,57,2.80
2016,02,23,01,58,2.80
2016,02,23,01,59,2.90
2016,02,23,02,00,2.90
2016,02,23,02,01,2.90
2016,02,23,02,02,2.90
2016,02,23,02,03,2.90
2016,02,23,02,04,2.90
2016,02,23,02,05,3.00
2016,02,23,02,06,3.00
2016,02,23,02,07,3.10
2016,02,23,02,08,3.10
2016,02,23,02,09,3.10
2016,02,23,02,10,3.20
2016,02,23,02,11,3.20
2016,02,23,02,12,3.20
2016,02,23,02,13,3.20
2016,02,23,02,14,3.20
2016,02,23,02,15,3.20
2016,02,23,02,16,3.20
2016,02,23,02,17,3.20
2016,02,23,02,18,3.20
2016,02,23,02,19,3.20
2016,02,23,02,20,3.20
2016,02,23,02,21,3.20
2016,02,23,02,22,3.20
2016,02,23,02,23,3.20
2016,02,23,02,24,3.20
2016,02,23,02,25,3.20
2016,02,23,02,26,3.20
2016,02,23,02,27,3.20
2016,02,23,02,28,3.20
2016,02,23,02,29,3.20
2016,02,23,02,30,3.20
2016,02,23,02,31,3.20
2016,02,23,02,32,3.20
2016,02,23,02,33,3.20
2016,02,23,02,34,3.20
2016,02,23,02,35,3.30
2016,02,23,02,36,3.30
2016,02,23,02,37,3.30
2016,02,23,02,38,3.30
2016,02,23,02,39,3.30
2016,02,23,02,40,3.30
2016,02,23,02,41,3.30
2016,02,23,02,42,3.40
2016,02,23,02,43,3.40
2016,02,23,02,44,3.40
2016,02,23,02,45,3.40
2016,02,23,02,46,3.40
2016,02,23,02,47,3.40
2016,02,23,02,48,3.40
2016,02,23,02,49,3.40
2016,02,23,02,50,3.40
2016,02,23,02,51,3.50
2016,02,23,02,52,3.40
2016,02,23,02,53,3.40
2016,02,23,02,54,3.40
2016,02,23,02,55,3.40
2016,02,23,02,56,3.40
2016,02,23,02,57,3.40
2016,02,23,02,58,3.40
2016,02,23,02,59,3.40
2016,02,23,03,00,3.40
2016,02,23,03,01,3.40
2016,02,23,03,02,3.40
2016,02,23,03,03,3.40
2016,02,23,03,04,3.40
2016,02,23,03,05,3.40
2016,02,23,03,06,3.40
2016,02,23,03,07,3.40
2016,02,23,03,08,3.40
2016,02,23,03,09,3.40
2016,02,23,03,10,3.40
2016,02,23,03,11,3.40
2016,02,23,03,12,3.40
2016,02,23,03,13,3.40
2016,02,23,03,14,3.40
2016,02,23,03,15,3.30
2016,02,23,03,16,3.30
2016,02,23,03,17,3.30
2016,02,23,03,18,3.30
2016,02,23,03,19,3.30
2016,02,23,03,20,3.30
2016,02,23,03,21,3.30
2016,02,23,03,22,3.30
2016,02,23,03,23,3.30
2016,02,23,03,24,3.30
2016,02,23,03,25,3.40
2016,02,23,03,26,3.40
2016,02,23,03,27,3.40
2016,02,23,03,28,3.40
2016,02,23,03,29,3.30
2016,02,23,03,30,3.30
2016,02,23,03,31,3.30
2016,02,23,03,32,3.30
2016,02,23,03,33,3.30
2016,02,23,03,34,3.30
2016,02,23,03,35,3.30
2016,02,23,03,36,3.30
2016,02,23,03,37,3.20
2016,02,23,03,38,3.20
2016,02,23,03,39,3.20
2016,02,23,03,40,3.20
2016,02,23,03,41,3.10
2016,02,23,03,42,3.10
2016,02,23,03,43,3.10
2016,02,23,03,44,3.10
2016,02,23,03,45,3.10
2016,02,23,03,46,3.10
2016,02,23,03,47,3.10
2016,02,23,03,48,3.10
2016,02,23,03,49,3.20
2016,02,23,03,50,3.20
2016,02,23,03,51,3.20
2016,02,23,03,52,3.20
2016,02,23,03,53,3.30
2016,02,23,03,54,3.30
2016,02,23,03,55,3.30
2016,02,23,03,56,3.30
2016,02,23,03,57,3.30
2016,02,23,03,58,3.30
2016,02,23,03,59,3.30
2016,02,23,04,00,3.30
2016,02,23,04,01,3.30
2016,02,23,04,02,3.20
2016,02,23,04,03,3.20
2016,02,23,04,04,3.20
2016,02,23,04,05,3.10
2016,02,23,04,06,3.10
2016,02,23,04,07,3.10
2016,02,23,04,08,3.00
2016,02,23,04,09,3.00
2016,02,23,04,10,3.00
2016,02,23,04,11,3.00
2016,02,23,04,12,2.90
2016,02,23,04,13,2.90
2016,02,23,04,14,2.90
2016,02,23,04,15,2.90
2016,02,23,04,16,2.90
2016,02,23,04,17,2.80
2016,02,23,04,18,2.80
2016,02,23,04,19,2.80
2016,02,23,04,20,2.80
2016,02,23,04,21,2.80
2016,02,23,04,22,2.80
2016,02,23,04,23,2.80
2016,02,23,04,24,2.70
2016,02,23,04,25,2.70
2016,02,23,04,26,2.70
2016,02,23,04,27,2.70
2016,02,23,04,28,2.70
2016,02,23,04,29,2.80
2016,02,23,04,30,2.80
2016,02,23,04,31,2.80
2016,02,23,04,32,2.80
2016,02,23,04,33,2.80
2016,02,23,04,34,2.70
2016,02,23,04,35,2.80
2016,02,23,04,36,2.80
2016,02,23,04,37,2.80
2016,02,23,04,38,2.80
2016,02,23,04,39,2.80
2016,02,23,04,40,2.80
2016,02,23,04,41,2.80
2016,02,23,04,42,2.80
2016,02,23,04,43,2.80
2016,02,23,04,44,2.80
2016,02,23,04,45,2.80
2016,02,23,04,46,2.80
2016,02,23,04,47,2.80
2016,02,23,04,48,2.80
2016,02,23,04,49,2.80
2016,02,23,04,50,2.80
2016,02,23,04,51,2.80
2016,02,23,04,52,2.80
2016,02,23,04,53,2.80
2016,02,23,04,54,2.80
2016,02,23,04,55,2.80
2016,02,23,04,56,2.80
2016,02,23,04,57,2.80
2016,02,23,04,58,2.80
2016,02,23,04,59,2.80
2016,02,23,05,00,2.80
2016,02,23,05,01,2.80
2016,02,23,05,02,2.90
2016,02,23,05,03,2.90
2016,02,23,05,04,2.90
2016,02,23,05,05,2.90
2016,02,23,05,06,3.00
2016,02,23,05,07,3.00
2016,02,23,05,08,3.00
2016,02,23,05,09,3.00
2016,02,23,05,10,3.00
2016,02,23,05,11,3.00
2016,02,23,05,12,3.00
2016,02,23,05,13,3.10
2016,02,23,05,14,3.10
2016,02,23,05,15,3.10
2016,02,23,05,16,3.10
2016,02,23,05,17,3.10
2016,02,23,05,18,3.00
2016,02,23,05,19,3.00
2016,02,23,05,20,2.90
2016,02,23,05,21,2.90
2016,02,23,05,22,2.90
2016,02,23,05,23,2.90
2016,02,23,05,24,2.90
2016,02,23,05,25,2.90
2016,02,23,05,26,2.90
2016,02,23,05,27,2.90
2016,02,23,05,28,2.80
2016,02,23,05,29,2.80
2016,02,23,05,30,2.80
2016,02,23,05,31,2.80
2016,02,23,05,32,2.80
2016,02,23,05,33,2.80
2016,02,23,05,34,2.80
2016,02,23,05,35,2.80
2016,02,23,05,36,2.80
2016,02,23,05,37,2.70
2016,02,23,05,38,2.70
2016,02,23,05,39,2.70
2016,02,23,05,40,2.70
2016,02,23,05,41,2.70
2016,02,23,05,42,2.70
2016,02,23,05,43,2.70
2016,02,23,05,44,2.60
2016,02,23,05,45,2.70
2016,02,23,05,46,2.70
2016,02,23,05,47,2.70
2016,02,23,05,48,2.70
2016,02,23,05,49,2.70
2016,02,23,05,50,2.70
2016,02,23,05,51,2.70
2016,02,23,05,52,2.70
2016,02,23,05,53,2.70
2016,02,23,05,54,2.60
2016,02,23,05,55,2.60
2016,02,23,05,56,2.70
2016,02,23,05,57,2.70
2016,02,23,05,58,2.80
2016,02,23,05,59,2.80
2016,02,23,06,00,2.80
2016,02,23,06,01,2.80
2016,02,23,06,02,2.80
2016,02,23,06,03,2.80
2016,02,23,06,04,2.90
2016,02,23,06,05,3.00
2016,02,23,06,06,3.00
2016,02,23,06,07,3.00
2016,02,23,06,08,3.00
2016,02,23,06,09,3.10
2016,02,23,06,10,3.10
2016,02,23,06,11,3.10
2016,02,23,06,12,3.20
2016,02,23,06,13,3.20
2016,02,23,06,14,3.20
2016,02,23,06,15,3.30
2016,02,23,06,16,3.30
2016,02,23,06,17,3.30
2016,02,23,06,18,3.30
2016,02,23,06,19,3.30
2016,02,23,06,20,3.30
2016,02,23,06,21,3.40
2016,02,23,06,22,3.40
2016,02,23,06,23,3.40
2016,02,23,06,24,3.40
2016,02,23,06,25,3.40
2016,02,23,06,26,3.40
2016,02,23,06,27,3.40
2016,02,23,06,28,3.40
2016,02,23,06,29,3.40
2016,02,23,06,30,3.40
2016,02,23,06,31,3.40
2016,02,23,06,32,3.40
2016,02,23,06,33,3.40
2016,02,23,06,34,3.50
2016,02,23,06,35,3.50
2016,02,23,06,36,3.50
2016,02,23,06,37,3.50
2016,02,23,06,38,3.50
2016,02,23,06,39,3.50
2016,02,23,06,40,3.50
2016,02,23,06,41,3.60
2016,02,23,06,42,3.60
2016,02,23,06,43,3.60
2016,02,23,06,44,3.60
2016,02,23,06,45,3.60
2016,02,23,06,46,3.60
2016,02,23,06,47,3.60
2016,02,23,06,48,3.60
2016,02,23,06,49,3.60
2016,02,23,06,50,3.60
2016,02,23,06,51,3.60
2016,02,23,06,52,3.60
2016,02,23,06,53,3.60
2016,02,23,06,54,3.60
2016,02,23,06,55,3.60
2016,02,23,06,56,3.60
2016,02,23,06,57,3.60
2016,02,23,06,58,3.60
2016,02,23,06,59,3.60
2016,02,23,07,00,3.60
2016,02,23,07,01,3.60
2016,02,23,07,02,3.60
2016,02,23,07,03,3.60
2016,02,23,07,04,3.60
2016,02,23,07,05,3.60
2016,02,23,07,06,3.60
2016,02,23,07,07,3.60
2016,02,23,07,08,3.60
2016,02,23,07,09,3.60
2016,02,23,07,10,3.60
2016,02,23,07,11,3.60
2016,02,23,07,12,3.60
2016,02,23,07,13,3.60
2016,02,23,07,14,3.60
2016,02,23,07,15,3.70
2016,02,23,07,16,3.70
2016,02,23,07,17,3.70
2016,02,23,07,18,3.70
2016,02,23,07,19,3.70
2016,02,23,07,20,3.70
2016,02,23,07,21,3.70
2016,02,23,07,22,3.70
2016,02,23,07,23,3.70
2016,02,23,07,24,3.70
2016,02,23,07,25,3.70
2016,02,23,07,26,3.70
2016,02,23,07,27,3.70
2016,02,23,07,28,3.70
2016,02,23,07,29,3.80
2016,02,23,07,30,3.80
2016,02,23,07,31,3.80
2016,02,23,07,32,3.80
2016,02,23,07,33,3.80
2016,02,23,07,34,3.80
2016,02,23,07,35,3.80
2016,02,23,07,36,3.80
2016,02,23,07,37,3.90
2016,02,23,07,38,3.90
2016,02,23,07,39,3.90
2016,02,23,07,40,3.90
2016,02,23,07,41,3.90
2016,02,23,07,42,3.90
2016,02,23,07,43,3.90
2016,02,23,07,44,3.90
2016,02,23,07,45,3.90
2016,02,23,07,46,4.00
2016,02,23,07,47,4.00
2016,02,23,07,48,4.10
2016,02,23,07,49,4.10
2016,02,23,07,50,4.10
2016,02,23,07,51,4.10
2016,02,23,07,52,4.10
2016,02,23,07,53,4.10
2016,02,23,07,54,4.10
2016,02,23,07,55,4.10
2016,02,23,07,56,4.10
2016,02,23,07,57,4.20
2016,02,23,07,58,4.20
2016,02,23,07,59,4.20
2016,02,23,08,00,4.20
2016,02,23,08,01,4.20
2016,02,23,08,02,4.20
2016,02,23,08,03,4.20
2016,02,23,08,04,4.20
2016,02,23,08,05,4.20
2016,02,23,08,06,4.20
2016,02,23,08,07,4.20
2016,02,23,08,08,4.30
2016,02,23,08,09,4.40
2016,02,23,08,10,4.40
2016,02,23,08,11,4.40
2016,02,23,08,12,4.40
2016,02,23,08,13,4.40
2016,02,23,08,14,4.40
2016,02,23,08,15,4.40
2016,02,23,08,16,4.40
2016,02,23,08,17,4.50
2016,02,23,08,18,4.50
2016,02,23,08,19,4.50
2016,02,23,08,20,4.60
2016,02,23,08,21,4.60
2016,02,23,08,22,4.60
2016,02,23,08,23,4.60
2016,02,23,08,24,4.70
2016,02,23,08,25,4.70
2016,02,23,08,26,4.70
2016,02,23,08,27,4.70
2016,02,23,08,28,4.70
2016,02,23,08,29,4.70
2016,02,23,08,30,4.70
2016,02,23,08,31,4.80
2016,02,23,08,32,4.80
2016,02,23,08,33,4.80
2016,02,23,08,34,4.80
2016,02,23,08,35,4.80
2016,02,23,08,36,4.80
2016,02,23,08,37,4.90
2016,02,23,08,38,4.90
2016,02,23,08,39,4.90
2016,02,23,08,40,5.00
2016,02,23,08,41,5.00
2016,02,23,08,42,5.10
2016,02,23,08,43,5.10
2016,02,23,08,44,5.10
2016,02,23,08,45,5.10
2016,02,23,08,46,5.20
2016,02,23,08,47,5.20
2016,02,23,08,48,5.10
2016,02,23,08,49,5.10
2016,02,23,08,50,5.20
2016,02,23,08,51,5.20
2016,02,23,08,52,5.20
2016,02,23,08,53,5.20
2016,02,23,08,54,5.20
2016,02,23,08,55,5.20
2016,02,23,08,56,5.30
2016,02,23,08,57,5.30
2016,02,23,08,58,5.30
2016,02,23,08,59,5.30
2016,02,23,09,00,5.30
2016,02,23,09,01,5.30
2016,02,23,09,02,5.40
2016,02,23,09,03,5.40
2016,02,23,09,04,5.40
2016,02,23,09,05,5.40
2016,02,23,09,06,5.40
2016,02,23,09,07,5.50
2016,02,23,09,08,5.50
2016,02,23,09,09,5.50
2016,02,23,09,10,5.50
2016,02,23,09,11,5.50
2016,02,23,09,12,5.50
2016,02,23,09,13,5.60
2016,02,23,09,14,5.60
2016,02,23,09,15,5.60
2016,02,23,09,16,5.60
2016,02,23,09,17,5.60
2016,02,23,09,18,5.70
2016,02,23,09,19,5.70
2016,02,23,09,20,5.70
2016,02,23,09,21,5.70
2016,02,23,09,22,5.70
2016,02,23,09,23,5.80
2016,02,23,09,24,5.80
2016,02,23,09,25,5.80
2016,02,23,09,26,5.80
2016,02,23,09,27,5.90
2016,02,23,09,28,5.90
2016,02,23,09,29,5.90
2016,02,23,09,30,5.90
2016,02,23,09,31,5.90
2016,02,23,09,32,5.90
2016,02,23,09,33,6.00
2016,02,23,09,34,6.00
2016,02,23,09,35,6.00
2016,02,23,09,36,6.00
2016,02,23,09,37,6.00
2016,02,23,09,38,6.00
2016,02,23,09,39,6.10
2016,02,23,09,40,6.10
2016,02,23,09,41,6.10
2016,02,23,09,42,6.10
2016,02,23,09,43,6.10
2016,02,23,09,44,6.10
2016,02,23,09,45,6.10
2016,02,23,09,46,6.10
2016,02,23,09,47,6.10
2016,02,23,09,48,6.10
2016,02,23,09,49,6.10
2016,02,23,09,50,6.20
2016,02,23,09,51,6.20
2016,02,23,09,52,6.20
2016,02,23,09,53,6.20
2016,02,23,09,54,6.30
2016,02,23,09,55,6.30
2016,02,23,09,56,6.30
2016,02,23,09,57,6.40
2016,02,23,09,58,6.40
2016,02,23,09,59,6.40
2016,02,23,10,00,6.40
2016,02,23,10,01,6.40
2016,02,23,10,02,6.40
2016,02,23,10,03,6.50
2016,02,23,10,04,6.50
2016,02,23,10,05,6.50
2016,02,23,10,06,6.50
2016,02,23,10,07,6.60
2016,02,23,10,08,6.60
2016,02,23,10,09,6.60
2016,02,23,10,10,6.60
2016,02,23,10,11,6.60
2016,02,23,10,12,6.60
2016,02,23,10,13,6.70
2016,02,23,10,14,6.70
2016,02,23,10,15,6.70
2016,02,23,10,16,6.70
2016,02,23,10,17,6.80
2016,02,23,10,18,6.80
2016,02,23,10,19,6.80
2016,02,23,10,20,6.90
2016,02,23,10,21,6.90
2016,02,23,10,22,6.90
2016,02,23,10,23,6.90
2016,02,23,10,24,7.00
2016,02,23,10,25,7.00
2016,02,23,10,26,7.10
2016,02,23,10,27,7.10
2016,02,23,10,28,7.10
2016,02,23,10,29,7.10
2016,02,23,10,30,7.10
2016,02,23,10,31,7.20
2016,02,23,10,32,7.20
2016,02,23,10,33,7.20
2016,02,23,10,34,7.30
2016,02,23,10,35,7.30
2016,02,23,10,36,7.40
2016,02,23,10,37,7.50
2016,02,23,10,38,7.50
2016,02,23,10,39,7.60
2016,02,23,10,40,7.60
2016,02,23,10,41,7.60
2016,02,23,10,42,7.70
2016,02,23,10,43,7.70
2016,02,23,10,44,7.70
2016,02,23,10,45,7.80
2016,02,23,10,46,7.80
2016,02,23,10,47,7.70
2016,02,23,10,48,7.70
2016,02,23,10,49,7.70
2016,02,23,10,50,7.70
2016,02,23,10,51,7.70
2016,02,23,10,52,7.70
2016,02,23,10,53,7.70
2016,02,23,10,54,7.70
2016,02,23,10,55,7.70
2016,02,23,10,56,7.70
2016,02,23,10,57,7.70
2016,02,23,10,58,7.70
2016,02,23,10,59,7.70
2016,02,23,11,00,7.60
2016,02,23,11,01,7.60
2016,02,23,11,02,7.60
2016,02,23,11,03,7.70
2016,02,23,11,04,7.70
2016,02,23,11,05,7.70
2016,02,23,11,06,7.60
2016,02,23,11,07,7.60
2016,02,23,11,08,7.60
2016,02,23,11,09,7.60
2016,02,23,11,10,7.50
2016,02,23,11,11,7.60
2016,02,23,11,12,7.60
2016,02,23,11,13,7.60
2016,02,23,11,14,7.60
2016,02,23,11,15,7.60
2016,02,23,11,16,7.70
2016,02,23,11,17,7.70
2016,02,23,11,18,7.70
2016,02,23,11,19,7.80
2016,02,23,11,20,7.80
2016,02,23,11,21,7.90
2016,02,23,11,22,7.90
2016,02,23,11,23,8.00
2016,02,23,11,24,8.00
2016,02,23,11,25,8.10
2016,02,23,11,26,8.10
2016,02,23,11,27,8.20
2016,02,23,11,28,8.20
2016,02,23,11,29,8.20
2016,02,23,11,30,8.30
2016,02,23,11,31,8.30
2016,02,23,11,32,8.30
2016,02,23,11,33,8.40
2016,02,23,11,34,8.50
2016,02,23,11,35,8.50
2016,02,23,11,36,8.40
2016,02,23,11,37,8.40
2016,02,23,11,38,8.40
2016,02,23,11,39,8.40
2016,02,23,11,40,8.50
2016,02,23,11,41,8.50
2016,02,23,11,42,8.60
2016,02,23,11,43,8.60
2016,02,23,11,44,8.70
2016,02,23,11,45,8.60
2016,02,23,11,46,8.60
2016,02,23,11,47,8.60
2016,02,23,11,48,8.60
2016,02,23,11,49,8.70
2016,02,23,11,50,8.70
2016,02,23,11,51,8.80
2016,02,23,11,52,8.70
2016,02,23,11,53,8.70
2016,02,23,11,54,8.70
2016,02,23,11,55,8.70
2016,02,23,11,56,8.60
2016,02,23,11,57,8.60
2016,02,23,11,58,8.60
2016,02,23,11,59,8.70
2016,02,23,12,00,8.80
2016,02,23,12,01,8.90
2016,02,23,12,02,9.00
2016,02,23,12,03,9.00
2016,02,23,12,04,9.10
2016,02,23,12,05,9.20
2016,02,23,12,06,9.20
2016,02,23,12,07,9.20
2016,02,23,12,08,9.30
2016,02,23,12,09,9.30
2016,02,23,12,10,9.30
2016,02,23,12,11,9.20
2016,02,23,12,12,9.20
2016,02,23,12,13,9.20
2016,02,23,12,14,9.20
2016,02,23,12,15,9.10
2016,02,23,12,16,9.20
2016,02,23,12,17,9.10
2016,02,23,12,18,9.00
2016,02,23,12,19,9.00
2016,02,23,12,20,9.00
2016,02,23,12,21,9.00
2016,02,23,12,22,9.00
2016,02,23,12,23,8.90
2016,02,23,12,24,8.90
2016,02,23,12,25,8.80
2016,02,23,12,26,8.80
2016,02,23,12,27,8.90
2016,02,23,12,28,9.00
2016,02,23,12,29,9.10
2016,02,23,12,30,9.10
2016,02,23,12,31,9.20
2016,02,23,12,32,9.30
2016,02,23,12,33,9.40
2016,02,23,12,34,9.40
2016,02,23,12,35,9.30
2016,02,23,12,36,9.20
2016,02,23,12,37,9.20
2016,02,23,12,38,9.10
2016,02,23,12,39,9.10
2016,02,23,12,40,9.10
2016,02,23,12,41,9.10
2016,02,23,12,42,9.10
2016,02,23,12,43,9.20
2016,02,23,12,44,9.20
2016,02,23,12,45,9.30
2016,02,23,12,46,9.40
2016,02,23,12,47,9.40
2016,02,23,12,48,9.50
2016,02,23,12,49,9.50
2016,02,23,12,50,9.50
2016,02,23,12,51,9.50
2016,02,23,12,52,9.60
2016,02,23,12,53,9.60
2016,02,23,12,54,9.60
2016,02,23,12,55,9.60
2016,02,23,12,56,9.50
2016,02,23,12,57,9.40
2016,02,23,12,58,9.40
2016,02,23,12,59,9.40
2016,02,23,13,00,9.50
2016,02,23,13,01,9.50
2016,02,23,13,02,9.60
2016,02,23,13,03,9.70
2016,02,23,13,04,9.80
2016,02,23,13,05,9.90
2016,02,23,13,06,9.90
2016,02,23,13,07,10.00
2016,02,23,13,08,10.00
2016,02,23,13,09,9.90
2016,02,23,13,10,9.80
2016,02,23,13,11,9.80
2016,02,23,13,12,9.80
2016,02,23,13,13,9.80
2016,02,23,13,14,9.70
2016,02,23,13,15,9.70
2016,02,23,13,16,9.70
2016,02,23,13,17,9.70
2016,02,23,13,18,9.80
2016,02,23,13,19,9.70
2016,02,23,13,20,9.70
2016,02,23,13,21,9.70
2016,02,23,13,22,9.70
2016,02,23,13,23,9.70
2016,02,23,13,24,9.70
2016,02,23,13,25,9.70
2016,02,23,13,26,9.70
2016,02,23,13,27,9.70
2016,02,23,13,28,9.80
2016,02,23,13,29,9.80
2016,02,23,13,30,9.90
2016,02,23,13,31,10.00
2016,02,23,13,32,10.00
2016,02,23,13,33,9.90
2016,02,23,13,34,10.00
2016,02,23,13,35,10.00
2016,02,23,13,36,10.10
2016,02,23,13,37,10.20
2016,02,23,13,38,10.20
2016,02,23,13,39,10.30
2016,02,23,13,40,10.30
2016,02,23,13,41,10.20
2016,02,23,13,42,10.20
2016,02,23,13,43,10.20
2016,02,23,13,44,10.20
2016,02,23,13,45,10.20
2016,02,23,13,46,10.10
2016,02,23,13,47,10.00
2016,02,23,13,48,9.80
2016,02,23,13,49,9.80
2016,02,23,13,50,9.80
2016,02,23,13,51,9.90
2016,02,23,13,52,10.00
2016,02,23,13,53,10.10
2016,02,23,13,54,10.10
2016,02,23,13,55,10.10
2016,02,23,13,56,10.00
2016,02,23,13,57,9.90
2016,02,23,13,58,9.90
2016,02,23,13,59,9.80
2016,02,23,14,00,9.80
2016,02,23,14,01,9.80
2016,02,23,14,02,9.80
2016,02,23,14,03,9.80
2016,02,23,14,04,9.80
2016,02,23,14,05,9.80
2016,02,23,14,06,9.80
2016,02,23,14,07,9.80
2016,02,23,14,08,9.80
2016,02,23,14,09,9.80
2016,02,23,14,10,9.90
2016,02,23,14,11,9.90
2016,02,23,14,12,10.00
2016,02,23,14,13,10.00
2016,02,23,14,14,10.00
2016,02,23,14,15,10.00
2016,02,23,14,16,10.00
2016,02,23,14,17,9.90
2016,02,23,14,18,9.90
2016,02,23,14,19,10.00
2016,02,23,14,20,10.00
2016,02,23,14,21,10.10
2016,02,23,14,22,10.10
2016,02,23,14,23,10.10
2016,02,23,14,24,10.10
2016,02,23,14,25,10.10
2016,02,23,14,26,10.10
2016,02,23,14,27,10.10
2016,02,23,14,28,10.10
2016,02,23,14,29,10.20
2016,02,23,14,30,10.20
2016,02,23,14,31,10.30
2016,02,23,14,32,10.30
2016,02,23,14,33,10.30
2016,02,23,14,34,10.40
2016,02,23,14,35,10.40
2016,02,23,14,36,10.30
2016,02,23,14,37,10.20
2016,02,23,14,38,10.20
2016,02,23,14,39,10.20
2016,02,23,14,40,10.20
2016,02,23,14,41,10.20
2016,02,23,14,42,10.20
2016,02,23,14,43,10.20
2016,02,23,14,44,10.20
2016,02,23,14,45,10.20
2016,02,23,14,46,10.10
2016,02,23,14,47,10.10
2016,02,23,14,48,10.10
2016,02,23,14,49,10.00
2016,02,23,14,50,10.00
2016,02,23,14,51,10.00
2016,02,23,14,52,10.00
2016,02,23,14,53,10.00
2016,02,23,14,54,10.00
2016,02,23,14,55,10.00
2016,02,23,14,56,10.00
2016,02,23,14,57,10.00
2016,02,23,14,58,10.00
2016,02,23,14,59,10.00
2016,02,23,15,00,10.00
2016,02,23,15,01,10.00
2016,02,23,15,02,10.00
2016,02,23,15,03,10.00
2016,02,23,15,04,10.00
2016,02,23,15,05,10.00
2016,02,23,15,06,9.90
2016,02,23,15,07,9.90
2016,02,23,15,08,9.90
2016,02,23,15,09,9.90
2016,02,23,15,10,9.90
2016,02,23,15,11,9.90
2016,02,23,15,12,9.90
2016,02,23,15,13,9.90
2016,02,23,15,14,9.90
2016,02,23,15,15,10.00
2016,02,23,15,16,10.10
2016,02,23,15,17,10.10
2016,02,23,15,18,10.10
2016,02,23,15,19,10.10
2016,02,23,15,20,10.10
2016,02,23,15,21,10.10
2016,02,23,15,22,10.10
2016,02,23,15,23,10.00
2016,02,23,15,24,10.00
2016,02,23,15,25,10.10
2016,02,23,15,26,10.10
2016,02,23,15,27,10.10
2016,02,23,15,28,10.10
2016,02,23,15,29,10.20
2016,02,23,15,30,10.20
2016,02,23,15,31,10.20
2016,02,23,15,32,10.20
2016,02,23,15,33,10.20
2016,02,23,15,34,10.20
2016,02,23,15,35,10.20
2016,02,23,15,36,10.10
2016,02,23,15,37,10.10
2016,02,23,15,38,10.10
2016,02,23,15,39,10.10
2016,02,23,15,40,10.10
2016,02,23,15,41,10.10
2016,02,23,15,42,10.10
2016,02,23,15,43,10.10
2016,02,23,15,44,10.10
2016,02,23,15,45,10.10
2016,02,23,15,46,10.10
2016,02,23,15,47,10.10
2016,02,23,15,48,10.20
2016,02,23,15,49,10.20
2016,02,23,15,50,10.20
2016,02,23,15,51,10.20
2016,02,23,15,52,10.30
2016,02,23,15,53,10.30
2016,02,23,15,54,10.30
2016,02,23,15,55,10.30
2016,02,23,15,56,10.40
2016,02,23,15,57,10.40
2016,02,23,15,58,10.40
2016,02,23,15,59,10.50
2016,02,23,16,00,10.60
2016,02,23,16,01,10.60
2016,02,23,16,02,10.70
2016,02,23,16,03,10.70
2016,02,23,16,04,10.70
2016,02,23,16,05,10.80
2016,02,23,16,06,10.80
2016,02,23,16,07,10.80
2016,02,23,16,08,10.90
2016,02,23,16,09,10.90
2016,02,23,16,10,10.90
2016,02,23,16,11,10.80
2016,02,23,16,12,10.70
2016,02,23,16,13,10.60
2016,02,23,16,14,10.60
2016,02,23,16,15,10.50
2016,02,23,16,16,10.50
2016,02,23,16,17,10.40
2016,02,23,16,18,10.40
2016,02,23,16,19,10.30
2016,02,23,16,20,10.30
2016,02,23,16,21,10.30
2016,02,23,16,22,10.30
2016,02,23,16,23,10.30
2016,02,23,16,24,10.20
2016,02,23,16,25,10.20
2016,02,23,16,26,10.20
2016,02,23,16,27,10.20
2016,02,23,16,28,10.20
2016,02,23,16,29,10.10
2016,02,23,16,30,10.10
2016,02,23,16,31,10.10
2016,02,23,16,32,10.10
2016,02,23,16,33,10.10
2016,02,23,16,34,10.10
2016,02,23,16,35,10.10
2016,02,23,16,36,10.10
2016,02,23,16,37,10.00
2016,02,23,16,38,10.00
2016,02,23,16,39,10.00
2016,02,23,16,40,10.00
2016,02,23,16,41,10.00
2016,02,23,16,42,10.00
2016,02,23,16,43,10.00
2016,02,23,16,44,9.90
2016,02,23,16,45,9.90
2016,02,23,16,46,9.90
2016,02,23,16,47,9.90
2016,02,23,16,48,9.80
2016,02,23,16,49,9.80
2016,02,23,16,50,9.80
2016,02,23,16,51,9.80
2016,02,23,16,52,9.80
2016,02,23,16,53,9.80
2016,02,23,16,54,9.80
2016,02,23,16,55,9.70
2016,02,23,16,56,9.70
2016,02,23,16,57,9.70
2016,02,23,16,58,9.70
2016,02,23,16,59,9.60
2016,02,23,17,00,9.60
2016,02,23,17,01,9.50
2016,02,23,17,02,9.40
2016,02,23,17,03,9.40
2016,02,23,17,04,9.40
2016,02,23,17,05,9.40
2016,02,23,17,06,9.30
2016,02,23,17,07,9.30
2016,02,23,17,08,9.30
2016,02,23,17,09,9.30
2016,02,23,17,10,9.30
2016,02,23,17,11,9.30
2016,02,23,17,12,9.20
2016,02,23,17,13,9.20
2016,02,23,17,14,9.20
2016,02,23,17,15,9.20
2016,02,23,17,16,9.10
2016,02,23,17,17,9.10
2016,02,23,17,18,9.10
2016,02,23,17,19,9.10
2016,02,23,17,20,9.00
2016,02,23,17,21,9.00
2016,02,23,17,22,8.90
2016,02,23,17,23,8.90
2016,02,23,17,24,8.90
2016,02,23,17,25,8.90
2016,02,23,17,26,8.90
2016,02,23,17,27,8.80
2016,02,23,17,28,8.80
2016,02,23,17,29,8.80
2016,02,23,17,30,8.80
2016,02,23,17,31,8.80
2016,02,23,17,32,8.80
2016,02,23,17,33,8.80
2016,02,23,17,34,8.80
2016,02,23,17,35,8.80
2016,02,23,17,36,8.70
2016,02,23,17,37,8.70
2016,02,23,17,38,8.70
2016,02,23,17,39,8.60
2016,02,23,17,40,8.60
2016,02,23,17,41,8.60
2016,02,23,17,42,8.50
2016,02,23,17,43,8.50
2016,02,23,17,44,8.40
2016,02,23,17,45,8.30
2016,02,23,17,46,8.30
2016,02,23,17,47,8.20
2016,02,23,17,48,8.20
2016,02,23,17,49,8.20
2016,02,23,17,50,8.10
2016,02,23,17,51,8.10
2016,02,23,17,52,8.00
2016,02,23,17,53,7.90
2016,02,23,17,54,7.80
2016,02,23,17,55,7.80
2016,02,23,17,56,7.80
2016,02,23,17,57,7.80
2016,02,23,17,58,7.80
2016,02,23,17,59,7.80
2016,02,23,18,00,7.80
2016,02,23,18,01,7.80
2016,02,23,18,02,7.80
2016,02,23,18,03,7.70
2016,02,23,18,04,7.70
2016,02,23,18,05,7.60
2016,02,23,18,06,7.50
2016,02,23,18,07,7.50
2016,02,23,18,08,7.40
2016,02,23,18,09,7.30
2016,02,23,18,10,7.30
2016,02,23,18,11,7.30
2016,02,23,18,12,7.20
2016,02,23,18,13,7.10
2016,02,23,18,14,7.10
2016,02,23,18,15,7.10
2016,02,23,18,16,7.20
2016,02,23,18,17,7.30
2016,02,23,18,18,7.30
2016,02,23,18,19,7.30
2016,02,23,18,20,7.30
2016,02,23,18,21,7.30
2016,02,23,18,22,7.30
2016,02,23,18,23,7.30
2016,02,23,18,24,7.20
2016,02,23,18,25,7.20
2016,02,23,18,26,7.30
2016,02,23,18,27,7.20
2016,02,23,18,28,7.20
2016,02,23,18,29,7.30
2016,02,23,18,30,7.40
2016,02,23,18,31,7.40
2016,02,23,18,32,7.40
2016,02,23,18,33,7.40
2016,02,23,18,34,7.30
2016,02,23,18,35,7.30
2016,02,23,18,36,7.10
2016,02,23,18,37,7.00
2016,02,23,18,38,6.90
2016,02,23,18,39,6.80
2016,02,23,18,40,6.70
2016,02,23,18,41,6.60
2016,02,23,18,42,6.60
2016,02,23,18,43,6.50
2016,02,23,18,44,6.40
2016,02,23,18,45,6.40
2016,02,23,18,46,6.40
2016,02,23,18,47,6.40
2016,02,23,18,48,6.50
2016,02,23,18,49,6.50
2016,02,23,18,50,6.50
2016,02,23,18,51,6.40
2016,02,23,18,52,6.40
2016,02,23,18,53,6.30
2016,02,23,18,54,6.30
2016,02,23,18,55,6.40
2016,02,23,18,56,6.40
2016,02,23,18,57,6.40
2016,02,23,18,58,6.40
2016,02,23,18,59,6.40
2016,02,23,19,00,6.40
2016,02,23,19,01,6.40
2016,02,23,19,02,6.50
2016,02,23,19,03,6.50
2016,02,23,19,04,6.60
2016,02,23,19,05,6.60
2016,02,23,19,06,6.60